CAPE
2022 2021 1984 1760 1886 1947 1937 1878 1844 1749 1624 1703 1759 1816 1832 1802 1884 1991 2192 2273 2330 2301 2223 2053 2021 2151 2398 2375 2538 2844 3030 3118 3098 3203 3266 3187 3016 3149 3116 3022 3186 3260 3368 3420 3247 3048 2852 2784 2678 2350 1870 1822 1609 1683 1598 1527 1508 1483 1454 1664 2041 2312 1713 1636 1439 1362 1317 1892 2581 3000 2488 2796 2859 2999 3510 3328 3008 3209 3082 2869 3508 3287 3125 3075 3105
2315 2220 2187 1993 1937 2024 1994 2059 1986 1836 1658 1580 1633 1653 1645 1664 1562 1756 1907 2044 2045 2217 2286 2190 1964 2227 2364 2366 2478 2580 2764 2902 3051 3093 3162 3129 3006 3258 3265 3144 3027 3056 3110 3116 3141 3136 3216 3155 3081 2750 2123 1820 1634 1663 1818 1810 1744 1599 1461 1325 1287 1418 1804 1430 1372 1376 1334 1471 1701 1860 2467 3400 2903 3462 3359 3648 3677 3485 3307 3309 3283 3157 3074 2889 3036
2275 2327 2296 2232 2057 2079 2036 2087 2122 2024 1769 1640 1608 1590 1565 1438 1388 1495 1781 1837 1849 1920 2026 2046 2052 2343 2397 2402 2367 2524 2568 2644 2744 2936 2974 3015 2988 3172 3412 3314 3062 3046 3024 3056 3042 3004 2929 2857 2894 2566 2610 2517 2142 2111 2116 2119 2119 2118 2032 1988 2014 1781 1525 1606 1476 1424 1416 1464 1843 2347 2517 2592 2916 3135 3261 3492 3759 3816 3703 3451 3160 3075 3029 3066 2938
2132 2291 2354 2299 2164 2072 2102 2054 2120 2190 2017 1780 1721 1678 1660 1528 1258 1143 1288 1541 1628 1680 2068 2054 2084 2372 2471 2462 2381 2357 2407 2410 2460 2600 2673 2756 2821 2842 3057 3207 3248 3186 3011 2941 2996 2981 2950 2858 2822 2827 2736 2786 2700 2624 2453 2410 2207 2106 2105 2166 2149 2021 1788 1384 1599 1568 1560 1552 1667 2132 2358 2690 3180 3052 3241 3698 3839 3759 3575 3433 3255 3310 3204 3182 3067
2049 2133 2263 2240 2096 2100 2107 1947 2078 2132 2115 2028 1838 1841 1796 1627 1280 1124 1010 1113 1404 1551 1814 2043 2076 2210 2366 2371 2282 2173 2146 2223 2284 2284 2402 2507 2571 2644 2708 2729 2735 2868 2998 2904 3368 3034 3036 2969 2884 2747 2839 2748 2674 2677 2690 2622 2538 2344 2094 2102 2116 2038 1882 1751 1552 1666 1618 1614 1714 2146 2840 3180 3112 3396 3940 3860 3456 3239 3199 3217 3309 3679 3393 3187 3089
1936 1973 1932 2111 2063 1825 1934 1894 1924 1954 2089 2101 2022 1880 1791 1667 1244 1044 990 837 1108 1380 1550 1878 2040 2056 2080 2087 2064 2047 2017 2009 2142 2168 2253 2414 2480 2532 2558 2528 2488 2594 2816 2987 2982 3098 3070 3049 2913 2719 2637 2736 2765 2760 2759 2733 2621 2532 2290 2124 2095 2098 2028 1842 1816 2122 2144 1993 1996 2177 2642 3342 3404 3234 3155 3055 3072 3212 3425 3571 3529 3576 3346 3176 3217
1811 1743 1610 1757 1860 1820 1822 1797 1622 1756 2033 2098 2046 1900 1706 1492 1188 890 866 882 764 1048 1372 1593 1748 1880 1994 2028 2047 2060 2042 1970 1982 2072 2115 2237 2423 2442 2403 2395 2378 2366 2602 2866 2983 3000 3052 3053 2912 2723 2552 2407 2467 2496 2520 2533 2513 2417 2272 2106 2144 2185 2076 1785 1834 1901 1954 1966 1916 1914 2116 2472 2765 2682 2711 2920 3256 3514 3650 3700 3419 3179 3023 2926 3185
1643 1638 1550 1484 1544 1676 1612 1262 1205 1382 1441 1911 2066 1899 1686 1374 1138 1177 949 730 292 184 877 1176 1431 1554 1697 1838 1898 1898 1867 1832 1858 1947 1959 1977 2054 2313 2383 2396 2368 2298 2285 2464 2697 2854 2915 2873 2722 2621 2552 2493 2408 2333 2317 2345 2327 2284 2223 2190 2198 2202 2148 1975 1875 2042 2092 2003 2027 2133 2204 2388 2571 2862 3143 3257 3370 3400 3343 3096 2939 2680 2483 2629 3189
1481 1587 1576 1559 1402 1189 1188 1336 1440 1497 1872 1965 1964 1902 1666 1486 1340 1168 1213 900 605 638 523 457 1026 1328 1444 1548 1662 1702 1725 1760 1822 1880 1869 1831 1723 1662 1998 2267 2321 2312 2242 2142 2107 2200 2340 2406 2394 2288 2131 2756 2578 2474 2261 2279 2127 2138 2141 2141 2183 2221 2203 1949 1880 1898 1916 1952 2131 2368 2639 2794 2913 2968 3062 3160 3337 3287 2769 2371 2375 2450 2508 2562 2600
1321 1487 1556 1622 1642 1262 1140 1210 1223 1213 1441 1770 1896 1884 1741 1601 1426 1252 1267 1133 1054 623 644 311 412 947 1240 1322 1400 1482 1536 1562 1703 1835 1864 1788 1679 1575 1560 1660 1855 2000 2043 2002 1932 1870 1820 1732 1665 2502 3113 3204 2706 2198 2026 2172 2643 2229 2003 1987 2022 2072 2105 2046 1946 1848 1842 1889 1934 1945 2027 2085 2154 2356 2562 2724 2740 2636 2556 2508 2413 2321 2280 2426 2593
1044 1073 1313 1429 1472 1376 1504 1588 1681 1573 1221 1285 1353 1434 1766 1721 1280 1251 1332 1349 1103 1176 630 655 548 354 956 1228 1294 1315 1326 1338 1362 1467 1741 1873 1768 1658 1587 1580 1614 1676 1720 1732 1698 1702 1714 1650 1445 1619 2878 3232 3072 2587 1958 1674 1637 2064 2460 2352 2209 1873 1870 1920 1968 1897 1820 1862 1843 1841 1850 1885 1955 2030 2153 2229 2320 2410 2381 2255 2075 1987 2090 2205 2018
988 1135 1322 1421 1447 1498 1502 1577 1682 1877 2220 2330 2189 2030 1973 1759 1527 1315 1335 1337 1453 1372 1055 858 785 683 551 861 1203 1327 1322 1297 1281 1313 1359 1482 1698 1735 1602 1546 1483 1410 1375 1394 1447 1479 1388 1345 1257 1136 1014 988 1134 1456 1931 2173 2013 1722 1571 1728 2080 2238 2148 1905 1842 1845 1850 1908 1949 1999 2004 2003 2013 2057 2108 2124 2170 2186 2261 2293 2226 2224 2395 2286 1888
1076 1024 1047 1379 1508 1591 1620 1580 1543 1694 1797 1818 2100 2198 2137 2052 1859 1678 1578 1562 1535 1565 1530 1472 1183 1072 1070 1141 889 891 1162 1293 1273 1270 1280 1311 1309 1397 1463 1443 1380 1322 1272 1217 1162 1124 1126 1111 1090 886 886 1462 1810 1238 933 893 1165 1522 1640 1568 1452 1500 1870 2170 2114 1956 1880 1869 1941 1984 2002 2045 2090 2131 2166 2192 2194 2220 2253 2254 2215 2110 1962 1869 1810
890 851 957 1061 1217 1430 1506 1488 1414 1420 1550 1672 1543 1597 1687 2036 2201 2245 2183 2008 1879 1800 1810 1659 1503 1421 1341 1299 1210 1284 1256 1164 1094 1153 1230 1318 1372 1336 1324 1368 1388 1341 1293 1242 1153 1028 912 823 784 762 474 433 567 570 469 460 560 784 942 977 931 963 1035 1194 1562 2151 2351 2330 2261 2139 2048 2086 2137 2049 2096 2144 2175 2169 2104 2052 1982 1914 1851 1742 1638
677 717 772 892 1049 1133 1273 1401 1420 1388 1296 1285 1286 1250 1203 1457 1842 2167 2260 2306 2246 2163 2180 2068 1909 1638 1516 1381 1298 1186 1144 1234 1261 1110 1049 1114 1279 1411 1480 1487 1475 1469 1456 1411 1327 1215 978 446 224 234 213 174 177 324 153 62 61 156 327 501 662 708 717 774 881 1060 1450 2053 2367 2343 2212 2089 2136 2176 2214 2310 2388 2374 2234 2141 2223 2397 2523 2739 2879
466 445 418 633 735 815 901 1036 1104 1223 1308 1370 1323 1279 1255 1195 1128 1482 1914 1598 1546 1906 2213 2041 1856 1790 1696 1567 1396 1347 1284 1203 1212 1242 1205 1050 976 986 1054 1091 1089 1097 1280 1460 1499 1470 1390 1212 816 144 135 105 292 275 585 536 166 105 142 261 423 622 689 721 733 737 783 831 920 1099 1283 1353 1332 1446 1531 1482 1461 1700 2124 2453 2540 2634 2634 2538 2338
401 380 457 604 740 795 754 677 816 976 972 988 1144 1257 1252 1242 1206 1367 1306 1378 1478 1478 1448 1572 1655 1667 1667 1650 1593 1528 1390 1319 1247 1182 1205 1314 1385 1304 1163 1055 974 923 891 859 1070 1242 1293 1279 1219 1116 1018 821 314 2 0 228 422 399 353 398 484 510 618 680 758 792 796 789 780 774 775 776 763 719 559 0 611 902 1180 1420 1424 1242 951 868 853
362 338 362 375 404 487 577 606 582 586 693 878 934 1018 1072 1101 1127 1133 1093 1090 1297 1372 1490 1464 1392 1445 1204 1166 1878 1971 1836 1624 1517 1493 1497 1484 1554 1639 1655 1596 1495 1416 1418 1407 1368 1282 1166 1036 1186 956 871 784 585 0 0 0 154 290 345 408 447 500 695 779 928 1016 1061 1041 1003 972 956 997 1033 1069 1066 1105 1261 1592 1826 1846 1714 1714 1610 1354 1074
226 290 305 308 334 406 454 512 554 511 428 485 679 764 870 899 916 925 978 994 1316 1230 1140 885 1049 1268 1518 1615 1643 1793 1835 1709 1692 1808 1754 1695 1642 1602 1557 1530 1515 1541 1529 1516 1471 1352 1274 1164 1328 1019 852 436 12 0 0 0 197 362 388 473 508 546 584 581 689 937 1126 1339 1533 1685 1776 1788 1794 1772 1738 1803 1917 2144 2234 2196 2039 1820 1645 1507 1397
153 190 208 260 298 323 361 398 391 374 328 300 362 513 614 703 834 840 833 858 830 882 1215 1285 1129 1098 1363 1512 1517 1678 1671 1577 1484 1535 1602 1596 1639 1639 1635 1544 1484 1430 1369 1307 1278 1291 1342 1361 1333 1223 1103 835 295 0 0 0 146 266 511 560 604 650 648 647 661 670 753 664 1002 1208 1422 1563 1740 1877 2009 2087 2137 2156 2048 1808 1482 1173 997 957 999
0 81 99 147 189 226 267 293 346 396 402 357 338 379 463 547 600 593 626 723 771 774 759 920 714 707 766 1063 1095 1168 1140 1356 1316 1208 1191 1234 1333 1431 1510 1519 1473 1423 1349 1234 1159 1128 1085 1045 1054 1108 1114 1063 866 335 0 0 439 888 924 887 850 756 718 847 946 1939 1256 998 911 801 813 808 986 1037 1085 1187 1234 1186 1088 999 939 914 914 919 845
0 0 0 0 0 87 136 189 240 312 346 356 365 377 391 408 407 452 478 494 524 596 567 778 680 558 609 794 849 1193 1386 1480 1293 1379 1264 1142 1122 1141 1202 1271 1319 1310 1289 1273 1309 1331 1278 1188 1126 1127 1117 1080 1046 1209 1123 1000 958 1032 1104 1148 1218 1273 1299 1321 1354 1362 1397 1402 1347 1277 1198 1140 1106 1092 1071 1108 1207 1226 1252 1264 1288 1383 1536 1712 1705
0 0 0 0 0 0 0 0 32 105 124 144 169 214 293 336 308 305 281 282 331 381 407 553 1021 848 497 644 1027 792 823 1378 1627 1412 1302 1198 1154 1160 1108 1106 1121 1201 1231 1262 1280 1307 1326 1306 1275 1240 1230 1236 1225 1178 1154 1338 1326 1346 1339 1303 1280 1318 1429 1558 1661 1731 1740 1726 1652 1541 1533 1522 1491 1431 1392 1584 1624 1669 1782 1906 1976 1872 1694 1552 1438
0 0 0 0 0 0 0 0 0 0 0 0 60 63 71 108 177 247 290 303 316 337 388 414 614 991 1118 1160 865 673 608 605 853 1006 1110 1119 1215 1394 1433 1437 1458 1470 1433 1421 1410 1430 1477 1484 1473 1460 1428 1406 1369 1294 1206 1120 1021 978 999 930 833 776 978 1334 1635 1756 1818 1828 1841 1758 1738 1712 1689 1674 1641 1579 1533 1496 1641 1628 1663 1682 1690 1706 1710
0 0 0 0 0 0 0 0 0 0 0 0 0 0 0 0 0 18 28 35 117 155 188 365 874 1125 973 942 1065 818 437 464 788 791 876 1188 1295 1280 1063 1015 1188 1256 1263 1299 1334 1370 1383 1409 1441 1461 1456 1452 1410 1365 1335 1314 1268 1249 1196 1094 931 890 946 1057 1294 1534 1694 1789 1877 1886 1861 1862 1842 1801 1779 1781 1758 1686 1670 1620 1574 1632 1779 1842 1935
0 0 0 0 0 0 0 0 0 0 0 0 0 0 0 0 0 0 0 0 0 0 0 206 79 115 43 50 4 190 258 0 70 370 1272 1346 1386 821 470 623 833 905 946 969 1022 1094 1133 1192 1240 1290 1338 1422 1462 1518 1556 1552 1503 1408 1335 1283 1256 1206 1150 1168 1260 1284 1259 1255 1423 1585 1710 1838 1903 1905 1879 1849 1830 1819 1777 1736 1696 1645 1614 1591 1562
0 0 0 0 0 0 0 0 0 0 0 0 0 0 0 0 0 0 0 0 0 0 0 0 0 0 0 0 0 0 0 0 0 20 100 701 693 424 177 414 530 604 701 752 788 834 895 945 1039 1215 1293 1362 1408 1442 1435 1428 1409 1427 1454 1429 1403 1378 1344 1337 1335 1282 1219 1197 1216 1332 1444 1500 1501 1551 1645 1731 1778 1803 1822 1787 1737 1699 1667 1670 1636
0 0 0 0 0 0 0 0 0 0 0 0 0 0 0 0 0 0 0 0 0 0 0 0 0 0 0 0 0 0 0 0 0 0 0 7 2 0 0 0 134 342 452 500 520 574 591 642 660 683 740 855 933 939 871 780 770 949 1136 1180 1206 1186 1181 1174 1190 1190 1199 1234 1237 1202 1240 1333 1358 1351 1258 1192 1338 1468 1539 1624 1679 1722 1692 1654 1618
0 0 0 0 0 0 0 0 0 0 0 0 0 0 0 0 0 0 0 0 0 0 0 0 0 0 0 0 0 0 0 0 0 0 0 0 0 0 0 0 0 0 0 68 268 318 345 333 397 426 455 566 581 536 428 203 206 117 107 108 88 368 875 930 952 999 1056 1086 1073 1052 1072 1128 1176 1139 1094 1188 1263 1372 1464 1528 1544 1530 1533 1560 1560
0 0 0 0 0 0 0 0 0 0 0 0 0 0 0 0 0 0 0 0 0 0 0 0 0 0 0 0 0 0 0 0 0 0 0 0 0 0 0 0 0 0 0 0 0 0 62 129 143 129 72 85 112 141 121 20 62 127 173 152 108 206 378 599 680 791 1006 1233 1229 1122 972 944 995 1042 1070 1112 1188 1248 1278 1273 1279 1271 1324 1418 1469
0 0 0 0 0 0 0 0 0 0 0 0 0 0 0 0 0 0 0 0 0 0 0 0 0 0 0 0 0 0 0 0 0 0 0 0 0 0 0 0 0 0 0 0 0 0 0 0 0 0 0 0 1 0 0 0 3 19 55 94 209 327 324 609 753 872 964 1170 1211 1088 1151 1167 1172 1184 1265 1332 1393 1430 1458 1478 1525 1501 1407 1336 1385
0 0 0 0 0 2 0 1 0 0 0 0 0 0 0 0 0 0 0 0 0 0 0 0 0 0 0 0 0 0 0 0 0 0 0 0 0 0 0 0 0 0 0 0 0 0 0 0 0 0 0 1 0 0 0 1 3 11 45 137 246 369 555 740 869 935 965 872 868 830 912 1017 1092 1116 1235 1436 1548 1553 1528 1509 1539 1674 1764 1762 1767
0 0 0 2 4 4 3 0 0 0 0 0 0 0 0 0 0 0 0 0 0 0 0 0 0 0 0 0 0 0 0 0 0 0 0 0 0 0 0 0 0 0 0 0 0 0 0 0 0 0 0 1 0 0 0 2 18 83 184 277 329 362 353 474 611 671 722 753 740 745 787 834 906 1008 1178 1370 1481 1554 1552 1540 1528 1482 1478 1588 1776
0 1 1 0 0 0 0 0 0 0 0 0 0 0 0 0 0 0 0 0 0 0 0 0 0 0 0 0 0 0 0 0 0 0 0 0 0 0 0 0 0 0 0 0 0 0 0 0 0 0 0 0 0 0 0 0 0 5 47 96 142 226 284 345 513 598 644 696 741 794 859 928 1025 1139 1262 1330 1416 1443 1418 1403 1361 1350 1354 1378 1504
0 3 0 0 0 0 0 0 0 0 0 0 0 0 0 0 0 0 0 0 0 0 0 0 0 0 0 0 0 0 0 0 0 0 0 0 0 0 0 0 0 0 0 0 0 0 0 0 0 16 33 3 0 0 0 0 0 0 1 17 71 144 203 390 511 571 672 755 826 902 984 1079 1194 1240 1244 1251 1260 1259 1238 1242 1199 1219 1204 1197 1216
0 0 0 1 1 0 0 0 0 0 0 0 0 0 0 0 0 0 0 0 0 0 0 0 0 0 0 0 0 0 0 0 0 0 0 0 0 0 0 0 0 0 0 0 0 0 0 1 4 7 4 0 0 0 0 0 0 0 0 5 74 411 470 531 605 690 778 797 802 850 913 962 1006 1039 1031 1062 1168 1189 1244 1022 1058 1066 1126 1140 1206
0 0 0 0 0 0 0 0 0 4 10 1 0 0 0 0 0 0 0 0 0 0 0 0 0 0 0 0 0 0 0 0 0 0 0 0 0 0 0 0 0 5 0 1 14 9 2 1 3 4 2 2 2 3 10 27 85 120 222 309 388 484 587 658 745 788 846 924 997 1024 998 982 1000 1045 1077 1086 1116 1151 1416 1506 1324 1199 1131 1142 1174
0 0 0 0 0 0 0 0 5 4 4 5 2 0 0 0 0 1 1 0 0 0 0 0 0 0 0 0 0 0 0 0 0 0 0 0 0 0 0 0 27 22 14 16 16 13 7 4 2 8 13 25 29 13 15 24 44 93 165 234 333 463 527 658 794 885 940 975 1124 1193 1245 1301 1287 1263 1250 1177 1192 1225 1313 1430 1462 1446 1386 1276 1195
0 0 1 1 7 1 0 6 12 14 13 18 9 12 18 21 16 3 0 0 0 0 0 0 0 0 0 0 0 0 0 0 0 0 0 0 0 0 0 10 25 23 14 6 4 6 12 9 4 1 0 1 0 0 18 29 34 53 42 12 124 112 38 162 325 623 613 655 673 712 747 773 858 898 887 750 852 1038 1045 1142 1259 1273 1318 1461 1510
0 0 0 5 2 1 3 18 25 25 27 27 20 22 21 14 8 8 5 3 0 0 0 0 0 0 0 0 0 0 0 0 0 0 0 0 0 0 0 1 3 9 18 29 28 18 6 1 0 0 0 0 0 0 4 6 20 41 61 42 32 36 14 24 38 428 556 100 198 462 524 632 695 756 712 684 717 731 739 821 882 1008 1212 1356 1383
0 1 5 6 14 8 10 16 28 34 28 20 18 19 17 19 14 14 11 10 9 6 2 1 0 0 0 0 0 0 0 0 0 0 0 0 0 0 0 1 3 10 11 11 9 6 0 0 0 0 0 0 5 8 8 3 3 2 1 2 3 4 3 2 23 8 28 56 171 281 244 353 352 337 426 629 748 768 708 761 854 944 1107 1209 1264
1 1 6 9 12 16 15 16 11 11 3 13 5 8 11 15 21 28 32 30 24 18 12 9 6 4 2 0 0 0 0 0 0 0 0 0 0 0 10 29 37 41 39 35 28 23 14 7 0 0 0 2 3 6 5 3 0 2 3 3 3 3 2 2 3 6 9 14 19 23 34 57 118 139 230 290 180 58 170 238 375 726 937 1089 1233
2 1 0 0 2 11 15 6 4 2 6 4 4 5 13 22 22 18 14 16 20 25 23 19 15 11 5 0 0 0 0 0 0 0 0 0 1 44 32 35 40 48 57 56 52 45 35 22 13 9 9 12 15 18 18 14 9 8 5 2 1 2 2 2 4 8 13 21 26 41 50 33 13 5 4 5 8 11 16 44 130 187 520 808 858
0 0 1 2 0 0 5 7 10 16 12 15 17 18 22 25 19 14 13 16 23 26 24 19 14 8 3 0 0 0 0 0 0 0 0 0 10 19 21 20 18 20 26 33 34 34 32 27 21 22 22 27 18 4 0 0 0 0 3 4 4 3 3 3 4 6 12 12 9 14 19 26 30 29 25 23 29 29 28 29 36 157 298 388 522
0 0 1 0 0 0 0 9 17 17 15 23 23 20 31 28 27 30 30 26 25 21 16 14 10 5 4 3 3 1 1 3 4 3 4 5 5 4 3 5 7 11 17 19 16 15 19 22 23 21 17 0 0 0 0 0 0 0 0 0 1 1 1 2 2 5 8 11 8 5 4 7 10 14 17 22 34 40 38 41 36 29 24 36 190
3 2 3 3 5 8 13 15 25 26 26 25 20 16 21 27 30 31 31 36 35 32 29 26 23 26 28 29 30 28 18 6 10 14 13 10 8 6 6 6 7 9 12 16 20 26 22 13 9 5 0 0 0 0 0 0 0 0 0 0 0 0 0 0 0 1 2 4 4 3 4 6 7 9 11 12 14 21 21 22 30 30 30 21 15
4 1 8 7 8 18 20 20 10 14 15 6 9 11 12 18 26 42 35 34 26 26 29 33 38 42 47 35 16 2 2 4 4 7 8 7 9 9 10 9 8 10 13 13 13 12 8 5 0 0 0 0 0 0 0 0 0 0 0 0 0 0 0 0 0 0 0 0 0 1 3 4 4 5 5 8 8 8 13 16 18 15 12 10 10
8 6 6 10 15 20 23 8 8 14 4 3 3 5 10 22 32 27 20 17 14 20 25 32 38 28 15 1 2 0 0 2 6 5 3 4 6 6 6 4 5 4 6 12 13 6 2 0 0 0 0 0 0 0 0 0 0 0 0 0 0 0 0 0 0 0 0 0 0 0 1 1 1 2 3 4 5 5 7 6 9 15 14 11 8
7 7 5 7 13 12 5 6 9 6 7 7 9 9 13 17 10 11 10 12 14 18 16 16 11 8 2 1 2 1 0 1 2 2 2 2 2 2 2 1 0 0 0 1 5 5 2 1 0 0 0 0 0 0 0 0 0 0 0 0 0 0 0 0 0 0 0 0 0 0 0 0 1 1 1 3 3 4 5 6 11 18 18 12 8
6 8 6 8 8 8 7 7 8 10 12 9 20 28 13 10 6 5 6 7 7 7 8 11 16 13 8 5 4 2 1 0 1 2 2 1 0 0 0 0 0 0 0 0 2 7 8 4 0 0 0 0 0 0 0 0 0 0 0 0 0 0 0 0 0 0 0 0 0 0 0 0 1 1 2 4 3 4 4 3 4 8 10 10 9
7 6 7 6 6 6 6 8 10 8 11 12 14 11 9 5 5 6 7 7 7 8 11 19 16 12 14 12 16 7 3 1 1 0 0 0 0 0 0 0 0 0 0 0 0 0 0 0 0 0 0 0 0 0 0 0 0 0 0 0 0 0 0 0 0 0 0 0 0 0 0 0 1 1 1 3 3 4 3 3 6 8 6 6 4
Wind_Speed
11 12 14 13 15 13 13 12 11 12 13 14 15 14 13 12 11 10 12 11 12 11 11 12 12 11 10 9 8 8 8 8 8 8 7 7 7 7 8 7 7 7 7 8 8 7 8 8 9 8 7 8 7 7 9 9 10 10 9 8 6 6 7 7 4 4 4 3 1 2 3 3 3 6 5 3 3 4 5 8 11 14 15 16 16
16 16 15 15 15 15 14 14 12 12 12 14 14 14 14 13 12 13 11 11 12 11 11 12 12 11 10 9 9 8 7 7 7 7 7 7 8 7 7 7 8 7 7 7 7 7 7 7 8 8 7 7 8 10 9 10 10 10 10 8 8 8 8 8 5 6 5 7 5 5 5 7 6 7 7 5 4 6 5 6 9 11 14 17 17
22 20 18 17 15 14 16 16 15 13 11 12 11 12 13 13 13 12 11 11 12 11 10 9 10 10 10 9 8 8 6 6 6 5 5 5 5 6 6 7 7 8 7 6 7 7 8 7 7 7 8 8 8 9 10 9 10 9 9 9 8 7 8 8 9 6 6 5 7 7 7 9 10 7 7 7 7 7 7 6 8 11 13 16 16
19 19 17 19 21 20 17 17 16 14 11 11 10 10 10 12 12 12 11 11 10 11 10 9 8 8 7 7 7 7 6 5 4 4 3 3 4 4 5 6 6 6 6 6 7 8 8 8 8 8 8 7 8 9 9 9 9 8 9 9 9 8 7 8 8 7 7 7 8 8 8 10 10 9 8 8 8 6 9 8 8 11 13 15 15
21 23 22 24 26 27 27 21 16 14 13 12 11 10 10 10 11 10 11 11 11 11 11 10 9 8 6 6 6 6 5 4 3 3 3 3 3 3 4 5 6 6 6 6 7 7 8 8 8 8 8 7 8 8 8 8 8 9 8 9 9 8 8 8 6 7 6 5 6 7 9 10 10 9 9 7 6 6 6 6 6 6 11 13 14
25 24 23 25 23 22 19 22 27 24 17 17 17 18 19 16 13 10 10 10 11 11 10 11 10 8 7 6 5 5 5 5 4 3 3 3 4 4 5 5 5 6 7 7 8 8 8 7 8 8 8 7 7 7 8 7 8 7 8 8 9 9 9 9 9 9 8 6 6 7 10 8 9 9 8 7 7 5 3 3 6 8 11 13 13
26 25 24 24 22 18 18 18 21 24 26 22 20 20 20 21 19 16 11 9 9 10 10 11 11 10 8 8 6 6 6 6 5 5 5 5 4 5 5 6 7 8 9 8 8 9 9 9 8 8 8 7 7 7 7 7 7 7 7 7 9 10 9 9 9 10 10 9 9 8 7 9 10 8 7 10 11 11 8 6 7 8 11 13 12
29 30 28 24 22 21 20 20 21 22 23 24 24 22 21 20 21 20 17 12 9 10 10 10 10 11 9 9 8 8 8 8 8 8 7 7 8 8 8 8 8 9 10 10 10 10 10 10 10 9 9 9 8 8 8 7 8 7 7 8 8 9 9 9 10 10 10 10 10 9 11 11 12 11 11 13 11 11 13 13 9 7 5 10 11
31 31 31 26 23 22 20 22 24 22 21 22 24 23 22 22 21 20 21 16 12 11 10 11 11 10 10 10 10 10 10 10 10 10 9 9 10 10 10 10 10 11 12 12 12 12 12 12 12 11 11 7 5 6 7 8 10 9 8 10 9 9 8 9 9 9 9 10 9 11 11 10 9 10 10 10 10 10 12 15 11 10 8 7 7
29 31 33 29 26 25 24 23 23 23 23 23 23 25 24 24 24 23 22 22 19 14 15 15 14 13 12 12 11 11 11 12 11 9 10 11 10 10 11 11 12 13 13 14 15 15 14 14 14 9 8 6 6 5 4 4 6 9 10 12 11 12 11 10 10 10 10 9 8 8 8 7 8 9 9 10 11 11 10 10 10 8 11 9 8
26 29 32 31 30 29 28 27 27 27 27 27 26 26 27 27 25 24 24 23 24 23 20 17 16 17 16 15 14 14 14 14 10 10 9 9 11 12 11 12 13 13 14 14 14 16 17 17 17 15 13 12 12 8 7 7 7 6 5 8 11 13 13 12 12 12 13 11 11 11 10 8 8 10 10 9 12 10 10 11 10 11 10 9 7
26 27 28 30 31 30 31 31 31 31 31 30 27 25 26 27 27 26 24 24 24 24 25 24 23 22 21 20 19 18 18 16 12 11 10 8 10 13 14 14 14 13 14 14 14 15 15 16 17 17 17 16 17 17 14 11 9 8 7 7 7 7 10 13 13 14 15 13 12 11 13 11 9 12 10 13 9 10 9 10 10 9 8 10 13
25 27 28 28 28 28 29 29 29 30 31 31 31 29 29 30 30 28 26 25 25 26 24 24 24 25 27 27 25 23 21 19 16 14 11 10 9 11 14 14 14 13 13 13 13 14 14 15 15 16 17 13 14 17 18 17 15 11 9 10 11 11 11 9 9 12 15 15 13 12 13 13 11 10 14 14 14 10 10 9 11 11 11 11 12
24 25 25 26 26 27 28 28 28 29 30 31 33 33 33 32 30 30 30 29 27 27 26 26 25 26 26 27 26 26 26 26 20 15 13 12 11 13 15 14 14 13 13 13 13 13 14 15 15 15 17 18 18 19 20 20 20 20 19 18 16 13 9 9 9 8 13 15 14 12 13 18 11 11 13 16 12 8 8 7 10 9 8 8 11
26 23 21 21 23 25 29 31 31 30 31 33 34 34 35 34 34 33 33 31 29 28 27 27 27 27 27 28 29 28 26 24 26 22 19 17 15 19 19 20 20 20 18 16 15 14 14 15 15 15 16 18 19 18 19 nan nan 18 18 18 18 18 17 17 17 17 16 16 14 12 12 16 14 11 13 17 13 9 9 9 11 11 11 14 16
27 24 23 22 22 23 25 28 30 30 31 32 34 34 34 34 34 33 33 33 30 29 28 28 28 28 29 30 31 30 27 23 27 26 25 23 25 25 23 20 18 17 18 20 20 19 19 18 18 18 18 18 16 14 16 20 22 20 19 18 19 19 18 17 16 17 18 18 16 13 13 12 13 13 13 14 15 14 16 18 17 16 14 13 11
31 30 28 26 24 24 25 26 27 27 27 28 30 32 33 33 33 32 33 32 31 30 30 29 30 31 31 32 32 30 29 27 31 32 32 33 32 30 28 25 23 20 18 18 19 20 20 20 20 19 18 18 16 nan nan 18 22 20 20 19 19 18 17 20 20 17 15 15 14 13 10 9 9 10 9 nan 12 17 21 19 14 16 17 15 14
33 33 31 28 26 26 26 26 25 26 26 25 25 27 28 30 32 33 33 32 32 33 34 36 38 39 39 38 35 33 32 33 34 34 35 33 33 33 31 28 26 24 22 22 22 20 19 16 18 20 18 17 16 nan nan nan 22 20 21 20 19 17 16 21 25 24 21 18 16 14 13 12 11 11 12 11 9 19 23 15 14 21 19 18 17
36 35 33 31 31 32 30 26 24 26 25 23 22 23 23 24 26 30 33 34 34 36 37 38 37 35 32 33 30 32 33 35 33 32 33 30 31 31 30 28 26 25 24 22 22 21 20 18 14 15 18 18 nan nan nan nan 23 22 22 23 19 16 17 24 25 22 23 25 23 22 20 18 18 19 17 13 13 20 23 18 19 23 20 19 21
36 36 35 34 34 36 36 34 30 28 26 23 23 22 21 21 22 24 28 31 35 35 34 35 37 37 35 34 31 33 34 35 35 34 31 29 28 31 31 30 27 25 25 24 23 22 20 20 19 16 14 15 17 nan nan nan 25 24 25 23 19 15 19 26 27 25 23 22 20 22 21 23 24 24 23 22 22 23 24 24 24 26 25 22 24
nan nan nan 37 37 36 36 36 34 31 29 26 24 24 24 22 21 22 23 26 29 32 34 33 35 34 32 30 33 36 36 33 32 34 31 28 28 31 29 27 26 26 28 28 27 25 24 24 25 23 19 18 17 18 nan nan 27 27 26 23 20 18 22 25 25 24 25 24 23 21 21 23 23 23 24 24 25 27 29 29 28 29 29 26 26
nan nan nan nan nan nan 38 37 37 35 32 31 30 28 27 26 24 24 24 25 27 29 28 27 28 27 28 28 31 35 36 34 34 35 33 28 28 27 28 25 26 28 27 29 29 28 27 28 29 28 27 27 29 29 28 30 31 32 26 22 18 19 21 23 26 27 26 25 25 24 24 23 23 23 23 22 23 26 28 30 30 30 30 29 28
nan nan nan nan nan nan nan nan nan 38 36 35 34 33 32 31 29 28 27 27 28 28 29 27 27 25 24 26 28 30 33 36 36 36 33 29 26 26 23 24 24 27 27 28 31 32 34 33 31 29 32 32 30 28 29 29 32 31 27 27 25 22 24 26 26 26 25 24 25 24 24 25 24 23 23 23 24 27 27 28 29 30 29 28 28
nan nan nan nan nan nan nan nan nan nan nan nan nan nan nan 35 34 33 31 30 31 31 30 30 29 27 28 31 29 31 32 31 31 31 30 27 25 24 23 21 23 27 29 29 31 33 34 34 34 35 34 33 32 31 29 27 27 26 29 29 29 30 32 30 30 29 27 26 25 24 24 26 27 26 25 26 27 28 28 28 27 28 28 28 26
nan nan nan nan nan nan nan nan nan nan nan nan nan nan nan nan nan nan nan nan 37 35 33 33 32 33 34 34 33 32 29 29 29 27 23 22 22 21 20 20 20 25 29 29 31 32 31 29 28 27 28 27 24 26 28 26 24 25 26 29 33 35 34 34 33 33 31 28 27 26 26 26 27 27 28 29 30 31 30 28 29 30 30 28 27
nan nan nan nan nan nan nan nan nan nan nan nan nan nan nan nan nan nan nan nan nan nan nan 42 nan 40 nan nan nan 33 33 nan nan 29 28 25 25 25 23 24 23 24 25 25 24 25 26 27 26 27 28 30 31 33 32 31 29 27 27 32 37 35 36 35 34 35 33 31 30 28 27 29 29 30 31 33 32 29 30 29 29 28 30 31 30
nan nan nan nan nan nan nan nan nan nan nan nan nan nan nan nan nan nan nan nan nan nan nan nan nan nan nan nan nan nan nan nan nan nan 32 31 31 30 30 27 25 26 28 26 26 27 28 30 30 28 28 26 27 28 29 29 31 33 34 35 35 35 35 35 34 34 33 32 31 31 30 31 32 32 32 33 31 29 31 31 31 29 32 34 33
nan nan nan nan nan nan nan nan nan nan nan nan nan nan nan nan nan nan nan nan nan nan nan nan nan nan nan nan nan nan nan nan nan nan nan nan nan nan nan nan 29 29 27 28 28 27 28 29 28 30 31 31 32 34 34 33 32 33 34 35 34 33 31 30 32 34 33 33 32 33 33 35 34 32 32 33 31 29 32 35 34 32 35 40 38
nan nan nan nan nan nan nan nan nan nan nan nan nan nan nan nan nan nan nan nan nan nan nan nan nan nan nan nan nan nan nan nan nan nan nan nan nan nan nan nan nan nan nan nan 28 27 28 27 28 29 31 31 31 30 31 32 33 34 34 35 nan 32 31 34 33 32 33 35 34 34 33 34 32 34 35 34 32 31 34 36 37 36 39 45 37
nan nan nan nan nan nan nan nan nan nan nan nan nan nan nan nan nan nan nan nan nan nan nan nan nan nan nan nan nan nan nan nan nan nan nan nan nan nan nan nan nan nan nan nan nan nan nan 29 28 29 nan nan 31 30 30 nan nan 32 34 34 33 31 30 30 30 30 32 34 35 36 36 35 33 33 35 35 35 36 38 39 38 41 41 42 40
nan nan nan nan nan nan nan nan nan nan nan nan nan nan nan nan nan nan nan nan nan nan nan nan nan nan nan nan nan nan nan nan nan nan nan nan nan nan nan nan nan nan nan nan nan nan nan nan nan nan nan nan nan nan nan nan nan nan nan nan 33 31 30 30 31 33 34 33 32 33 33 34 33 34 34 35 36 38 40 42 41 42 42 41 41
nan nan nan nan nan nan nan nan nan nan nan nan nan nan nan nan nan nan nan nan nan nan nan nan nan nan nan nan nan nan nan nan nan nan nan nan nan nan nan nan nan nan nan nan nan nan nan nan nan nan nan nan nan nan nan nan nan nan nan 30 30 31 31 31 34 36 36 35 33 33 32 32 33 34 35 35 37 38 39 40 43 43 43 44 42
nan nan nan nan nan nan nan nan nan nan nan nan nan nan nan nan nan nan nan nan nan nan nan nan nan nan nan nan nan nan nan nan nan nan nan nan nan nan nan nan nan nan nan nan nan nan nan nan nan nan nan nan nan nan nan nan nan nan 29 29 29 29 30 31 34 34 34 34 35 34 34 34 34 35 36 37 38 37 38 39 40 42 42 42 42
nan nan nan nan nan nan nan nan nan nan nan nan nan nan nan nan nan nan nan nan nan nan nan nan nan nan nan nan nan nan nan nan nan nan nan nan nan nan nan nan nan nan nan nan nan nan nan nan nan nan nan nan nan nan nan nan nan nan nan nan 28 28 28 31 32 31 31 31 32 33 34 35 36 36 37 38 39 40 39 39 40 41 41 42 41
nan nan nan nan nan nan nan nan nan nan nan nan nan nan nan nan nan nan nan nan nan nan nan nan nan nan nan nan nan nan nan nan nan nan nan nan nan nan nan nan nan nan nan nan nan nan nan nan nan nan nan nan nan nan nan nan nan nan nan nan nan 31 31 32 32 31 30 30 31 33 36 37 37 38 38 38 39 40 40 38 38 39 39 41 43
nan nan nan nan nan nan nan nan nan nan nan nan nan nan nan nan nan nan nan nan nan nan nan nan nan nan nan nan nan nan nan nan nan nan nan nan nan nan nan nan nan nan nan nan nan nan nan nan nan nan nan nan nan nan nan nan nan nan nan nan nan 36 36 36 36 35 33 32 31 32 36 37 37 37 36 35 38 39 35 35 38 38 39 40 42
nan nan nan nan nan nan nan nan nan nan nan nan nan nan nan nan nan nan nan nan nan nan nan nan nan nan nan nan nan nan nan nan nan nan nan nan nan nan nan nan nan nan nan nan nan nan nan nan nan nan nan nan nan nan nan nan nan 43 42 41 40 39 39 40 40 39 38 37 35 35 36 35 36 37 41 43 42 35 33 36 38 38 38 38 39
nan nan nan nan nan nan nan nan nan nan nan nan nan nan nan nan nan nan nan nan nan nan nan nan nan nan nan nan nan nan nan nan nan nan nan nan nan nan nan nan nan nan nan nan nan nan nan nan nan nan nan nan nan nan nan nan nan nan 50 50 48 47 44 43 43 43 42 41 40 38 37 37 37 41 44 40 34 31 33 36 37 37 36 34 37
nan nan nan nan nan nan nan nan nan nan nan nan nan nan nan nan nan nan nan nan nan nan nan nan nan nan nan nan nan nan nan nan nan nan nan nan nan nan nan nan nan nan nan nan nan nan nan nan nan nan nan nan nan nan nan nan nan nan nan nan 52 52 nan 52 51 50 49 48 46 44 42 41 40 41 41 39 34 32 34 35 35 34 33 34 35
nan nan nan nan nan nan nan nan nan nan nan nan nan nan nan nan nan nan nan nan nan nan nan nan nan nan nan nan nan nan nan nan nan nan nan nan nan nan nan nan nan nan nan nan nan nan nan nan nan nan nan nan nan nan nan nan nan nan nan nan nan nan nan nan nan 52 50 nan 48 46 45 44 44 43 43 41 36 34 37 37 35 34 35 35 35
nan nan nan nan nan nan nan nan nan nan nan nan nan nan nan nan nan nan nan nan nan nan nan nan nan nan nan nan nan nan nan nan nan nan nan nan nan nan nan nan nan nan nan nan nan nan nan nan nan nan nan nan nan nan nan nan nan nan nan nan nan nan nan nan nan nan nan nan 51 50 50 49 46 42 40 41 38 36 37 39 39 37 36 36 37
nan nan nan nan nan nan nan nan nan nan nan nan nan nan nan nan nan nan nan nan nan nan nan nan nan nan nan nan nan nan nan nan nan nan nan nan nan nan nan nan nan nan nan nan nan nan nan nan nan nan nan nan nan nan nan nan nan nan nan nan nan nan nan nan nan nan nan nan nan nan nan nan 49 51 49 47 44 nan 39 39 39 37 36 36 36
nan nan nan nan nan nan nan nan nan nan nan nan nan nan nan nan nan nan nan nan nan nan nan nan nan nan nan nan nan nan nan nan nan nan nan nan nan nan nan nan nan nan nan nan nan nan nan nan nan nan nan nan nan nan nan nan nan nan nan nan nan nan nan nan nan nan nan nan nan nan nan nan nan nan nan nan nan nan nan nan 41 40 36 35 37
nan nan nan nan nan nan nan nan nan nan nan nan nan nan nan nan nan nan nan nan nan nan nan nan nan nan nan nan nan nan nan nan nan nan nan nan nan nan nan nan nan nan nan nan nan nan nan nan nan nan nan nan nan nan nan nan nan nan nan nan nan nan nan nan nan nan nan nan nan nan nan nan nan nan nan nan nan nan nan nan nan 43 42 39 38
nan nan nan nan nan nan nan nan nan nan nan nan nan nan nan nan nan nan nan nan nan nan nan nan nan nan nan nan nan nan nan nan nan nan nan nan nan nan nan nan nan nan nan nan nan nan nan nan nan nan nan nan nan nan nan nan nan nan nan nan nan nan nan nan nan nan nan nan nan nan nan nan nan nan nan nan nan nan nan nan nan nan nan nan 41
nan nan nan nan nan nan nan nan nan nan nan nan nan nan nan nan nan nan nan nan nan nan nan nan nan nan nan nan nan nan nan nan nan nan nan nan nan nan nan nan nan nan nan nan nan nan nan nan nan nan nan nan nan nan nan nan nan nan nan nan nan nan nan nan nan nan nan nan nan nan nan nan nan nan nan nan nan nan nan nan nan nan nan nan nan
nan nan nan nan nan nan nan nan nan nan nan nan nan nan nan nan nan nan nan nan nan nan nan nan nan nan nan nan nan nan nan nan nan nan nan nan nan nan nan nan nan nan nan nan nan nan nan nan nan nan nan nan nan nan nan nan nan nan nan nan nan nan nan nan nan nan nan nan nan nan nan nan nan nan nan nan nan nan nan nan nan nan nan nan nan
nan nan nan nan nan nan nan nan nan nan nan nan nan nan nan nan nan nan nan nan nan nan nan nan nan nan nan nan nan nan nan nan nan nan nan nan nan nan nan nan nan nan nan nan nan nan nan nan nan nan nan nan nan nan nan nan nan nan nan nan nan nan nan nan nan nan nan nan nan nan nan nan nan nan nan nan nan nan nan nan nan nan nan nan nan
nan nan nan nan nan nan nan nan nan nan nan nan nan nan nan nan nan nan nan nan nan nan nan nan nan nan nan nan nan nan nan nan nan nan nan nan nan nan nan nan nan nan nan nan nan nan nan nan nan nan nan nan nan nan nan nan nan nan nan nan nan nan nan nan nan nan nan nan nan nan nan nan nan nan nan nan nan nan nan nan nan nan nan nan nan
nan nan nan nan nan nan nan nan nan nan nan nan nan nan nan nan nan nan nan nan nan nan nan nan nan nan nan nan nan nan nan nan nan nan nan nan nan nan nan nan nan nan nan nan nan nan nan nan nan nan nan nan nan nan nan nan nan nan nan nan nan nan nan nan nan nan nan nan nan nan nan nan nan nan nan nan nan nan nan nan nan nan nan nan nan
nan nan nan nan nan nan nan nan nan nan nan nan nan nan nan nan nan nan nan nan nan nan nan nan nan nan nan nan nan nan nan nan nan nan nan nan nan nan nan nan nan nan nan nan nan nan nan nan nan nan nan nan nan nan nan nan nan nan nan nan nan nan nan nan nan nan nan nan nan nan nan nan nan nan nan nan nan nan nan nan nan nan nan nan nan
Wind_Direction
241 244 232 214 207 209 213 216 214 214 212 211 209 203 199 197 195 192 197 195 196 191 182 175 173 169 170 173 173 171 174 172 172 183 183 178 173 169 171 174 175 174 173 162 166 167 170 171 168 168 179 191 185 195 195 189 195 202 219 224 219 230 241 246 233 169 232 285 306 289 278 272 260 276 264 259 263 281 305 316 318 322 330 337 342
218 228 234 224 210 205 208 214 216 214 214 215 211 208 201 196 194 197 196 191 200 197 192 184 179 175 171 174 176 175 178 176 173 189 187 187 180 178 179 180 181 178 178 169 168 173 178 178 172 174 188 190 189 192 200 199 201 200 203 218 201 198 234 249 243 241 200 238 240 252 272 281 271 294 293 280 276 289 297 316 312 321 330 333 342
222 227 228 229 225 216 210 210 215 216 218 216 214 211 209 202 199 203 198 194 196 200 205 199 189 182 177 177 182 182 180 175 178 189 190 193 189 186 191 198 192 185 178 173 174 182 182 183 177 187 200 200 197 200 204 202 208 209 201 222 220 208 227 250 254 236 224 226 267 255 269 273 283 289 280 295 303 303 311 321 336 331 329 331 340
223 230 231 237 231 218 215 217 213 217 216 216 218 213 217 213 208 205 204 203 200 199 210 216 211 202 191 183 189 194 191 181 182 189 194 201 198 193 200 213 212 197 188 185 186 187 187 187 182 193 202 206 203 205 207 212 215 216 217 216 227 219 222 252 266 267 254 244 242 265 265 263 274 284 291 290 297 301 317 334 335 337 332 331 337
231 223 220 218 215 216 210 210 216 223 216 215 211 210 215 222 221 214 215 208 203 205 205 218 226 227 217 206 202 205 209 211 207 206 207 215 219 213 214 218 222 220 212 208 204 204 196 192 185 197 205 204 201 206 209 212 213 228 230 230 233 234 234 248 257 271 267 255 249 261 268 270 283 286 292 294 286 296 305 325 343 333 326 330 328
238 238 233 233 232 227 226 227 213 208 220 221 220 218 216 214 212 219 228 224 218 209 210 213 226 232 230 232 232 227 228 233 240 244 240 227 218 215 220 220 223 230 229 227 220 219 214 204 198 205 211 214 203 208 215 213 218 224 230 235 242 243 243 240 254 255 263 272 274 244 258 273 268 282 291 293 291 284 282 309 308 317 316 314 322
238 239 234 231 239 238 234 232 236 222 207 217 224 217 218 219 219 213 208 225 237 230 221 218 218 226 227 233 237 239 238 233 235 238 236 234 228 216 211 210 213 223 228 234 233 227 222 217 212 212 213 217 216 216 220 224 231 230 237 238 243 250 249 253 257 263 268 264 255 273 268 268 285 274 277 283 290 302 306 286 283 295 300 312 314
242 236 235 229 227 229 227 228 231 236 232 218 220 221 218 218 217 213 214 205 215 238 240 236 229 229 230 232 231 234 236 232 227 228 227 230 227 215 211 208 206 211 219 226 232 232 230 226 223 224 224 222 224 219 231 228 238 235 238 244 244 251 252 253 255 261 261 262 269 260 268 264 259 272 270 266 266 272 293 302 300 286 283 297 312
241 240 241 238 227 223 226 227 230 237 243 240 230 221 222 219 216 217 211 209 209 214 236 247 245 240 235 236 234 235 241 242 239 238 236 231 230 224 219 213 209 205 207 215 222 226 228 229 228 228 231 230 237 235 237 244 240 236 231 246 245 247 246 251 257 257 253 255 246 257 256 254 264 263 258 268 285 299 286 286 292 299 300 285 303
239 243 241 236 229 224 228 230 232 231 235 234 229 226 224 224 220 214 216 210 205 211 219 224 235 242 238 233 232 233 235 237 248 275 266 252 247 242 237 230 224 216 211 208 210 215 218 222 223 228 233 229 227 228 223 232 247 247 240 248 248 248 249 249 249 256 259 258 263 265 263 268 269 277 280 281 284 278 271 278 283 286 282 299 302
232 234 235 231 228 225 224 230 236 236 233 230 226 226 224 225 224 221 216 215 216 212 222 235 233 235 237 235 232 230 230 233 255 271 276 281 258 251 252 245 241 237 231 224 216 214 214 216 218 212 212 214 217 215 219 217 226 229 230 248 256 258 252 253 253 257 260 264 262 264 271 264 264 274 281 279 280 290 289 282 286 284 294 298 305
242 237 230 226 227 228 229 233 237 235 233 230 229 227 233 230 228 224 222 221 218 221 224 228 230 234 239 239 237 232 230 230 242 254 263 269 261 250 249 248 248 247 245 242 237 232 225 223 223 223 224 223 225 226 225 223 224 223 219 223 240 265 274 267 258 252 259 262 261 266 264 265 261 265 265 269 275 273 281 281 285 295 303 308 304
233 237 232 228 228 228 228 229 229 228 227 227 225 225 224 225 224 223 226 225 224 225 225 226 229 232 236 236 235 235 236 238 241 245 247 253 261 256 248 253 254 254 255 254 252 249 247 242 236 235 232 226 228 231 232 232 237 239 233 225 222 227 227 229 247 259 262 263 264 261 270 263 260 261 267 265 268 267 262 268 279 291 301 300 305
235 228 221 222 223 224 224 223 221 221 223 225 227 226 225 224 223 222 220 222 227 227 226 227 229 232 237 239 235 231 233 232 244 257 261 260 254 249 242 248 253 255 257 258 256 255 255 254 250 246 245 244 244 244 242 242 241 241 244 245 244 242 252 273 272 258 254 258 261 264 264 267 265 259 262 264 258 250 251 256 268 271 277 295 298
235 235 228 221 223 224 223 223 223 225 229 230 232 229 226 224 225 224 222 220 222 226 229 230 230 233 238 242 243 240 238 240 248 254 257 259 253 248 237 233 233 236 238 240 243 246 249 252 252 251 249 251 252 254 250 nan nan 242 243 244 249 250 252 255 260 264 267 268 266 263 258 267 268 258 255 264 266 251 249 248 258 266 261 258 258
239 241 242 236 232 232 229 226 226 225 226 229 231 231 228 226 226 225 224 221 221 223 227 231 234 236 238 241 245 247 242 244 253 250 249 246 248 244 241 240 238 239 240 242 243 242 241 241 241 240 243 246 249 258 257 253 252 250 249 248 247 251 256 265 274 273 272 273 273 269 265 269 276 270 262 261 259 253 243 244 248 254 249 247 254
239 238 238 237 238 238 235 232 232 228 225 227 229 229 230 227 225 224 225 225 225 225 227 228 228 231 235 239 242 244 245 239 239 243 244 249 245 241 240 237 233 233 235 244 251 254 256 257 255 250 245 246 249 nan nan 261 257 259 260 259 258 256 256 259 273 284 286 288 293 296 293 287 282 282 275 nan 258 252 246 238 241 252 251 249 253
239 239 238 237 233 235 241 241 239 240 236 235 234 232 232 230 225 223 223 224 225 225 226 227 226 225 225 226 229 239 240 239 243 242 242 241 239 240 241 241 237 233 229 231 237 241 249 260 268 266 266 262 263 nan nan nan 263 264 266 266 266 268 266 263 263 269 288 297 299 301 299 292 286 279 274 269 264 267 270 264 256 253 255 260 255
236 239 240 240 240 241 241 245 242 244 244 245 244 242 238 234 231 227 226 226 227 230 232 232 233 233 233 238 230 238 243 245 252 248 251 253 252 251 251 250 245 242 239 235 238 243 244 248 257 264 266 267 nan nan nan nan 270 269 269 268 268 270 271 269 270 269 268 270 273 276 274 280 280 279 280 289 283 276 278 276 261 264 262 259 260
239 242 243 244 247 247 247 245 243 243 245 248 249 251 249 243 238 234 230 230 233 235 237 243 241 238 233 234 238 240 243 244 248 261 261 258 259 253 253 255 253 251 251 248 244 242 244 245 249 258 266 269 274 nan nan nan 278 270 267 268 267 260 258 262 269 272 270 272 272 275 279 275 275 276 275 272 272 275 278 277 272 270 268 263 264
nan nan nan 241 242 243 245 247 246 249 251 251 250 251 252 251 248 244 239 237 239 238 235 239 245 247 246 242 237 239 242 241 244 253 253 253 251 255 252 255 253 251 248 250 252 248 245 246 244 244 249 256 264 269 nan nan 271 265 266 268 269 257 249 256 261 270 270 272 273 272 272 272 274 274 273 270 268 267 270 273 272 273 273 271 270
nan nan nan nan nan nan 239 238 241 245 247 248 248 246 248 251 253 250 249 248 249 251 247 242 245 246 247 240 240 243 242 239 239 240 247 250 250 257 257 256 256 251 248 251 254 255 255 251 249 244 239 241 245 251 256 264 273 274 275 277 262 245 247 252 252 255 260 264 266 268 269 270 271 273 273 270 266 263 264 266 270 273 275 277 279
nan nan nan nan nan nan nan nan nan 242 242 243 245 244 245 247 249 252 255 254 255 255 256 256 261 267 261 254 250 250 247 242 239 240 241 247 249 253 261 261 253 254 251 247 249 251 252 252 250 241 235 238 244 247 250 250 260 270 271 268 267 262 256 258 258 257 257 258 260 263 266 267 266 265 266 266 265 264 263 266 268 272 273 275 278
nan nan nan nan nan nan nan nan nan nan nan nan nan nan nan 244 246 247 249 254 256 257 257 259 261 264 264 263 262 259 253 250 243 240 244 251 255 259 261 261 259 257 251 249 250 252 252 253 253 244 241 241 240 243 246 253 261 257 258 262 262 261 264 263 263 264 261 258 259 260 262 264 266 265 265 265 264 268 271 272 273 274 274 273 276
nan nan nan nan nan nan nan nan nan nan nan nan nan nan nan nan nan nan nan nan 250 254 253 257 259 259 261 260 258 257 253 252 253 252 251 253 263 272 274 272 264 264 261 257 257 258 259 255 251 250 250 250 250 250 255 260 264 265 263 264 265 265 265 265 264 264 264 263 261 258 258 262 264 264 262 262 262 263 265 265 268 271 274 275 275
nan nan nan nan nan nan nan nan nan nan nan nan nan nan nan nan nan nan nan nan nan nan nan 253 nan 254 nan nan nan 256 257 nan nan 260 263 265 270 275 278 274 267 267 267 255 248 244 246 248 249 255 261 265 264 262 262 263 263 263 264 269 269 269 268 267 266 267 268 267 266 264 262 260 260 262 262 263 263 265 266 265 265 266 270 271 269
nan nan nan nan nan nan nan nan nan nan nan nan nan nan nan nan nan nan nan nan nan nan nan nan nan nan nan nan nan nan nan nan nan nan 264 266 268 269 271 268 268 263 259 258 253 252 252 253 256 256 257 259 260 261 264 261 256 255 260 264 267 268 269 272 274 274 273 272 270 267 265 263 260 259 261 265 267 268 271 270 268 267 268 268 268
nan nan nan nan nan nan nan nan nan nan nan nan nan nan nan nan nan nan nan nan nan nan nan nan nan nan nan nan nan nan nan nan nan nan nan nan nan nan nan nan 263 262 260 259 256 253 251 251 251 254 255 256 259 261 263 264 260 257 259 263 265 267 270 275 276 274 275 275 272 268 265 263 262 264 264 266 268 268 270 272 272 270 269 269 269
nan nan nan nan nan nan nan nan nan nan nan nan nan nan nan nan nan nan nan nan nan nan nan nan nan nan nan nan nan nan nan nan nan nan nan nan nan nan nan nan nan nan nan nan 251 254 255 255 253 250 252 252 252 255 257 258 258 261 261 263 nan 268 271 275 277 277 277 275 275 275 270 267 265 265 265 266 267 266 266 269 271 272 271 275 277
nan nan nan nan nan nan nan nan nan nan nan nan nan nan nan nan nan nan nan nan nan nan nan nan nan nan nan nan nan nan nan nan nan nan nan nan nan nan nan nan nan nan nan nan nan nan nan 256 257 255 nan nan 251 252 253 nan nan 254 256 257 260 264 271 277 282 282 280 279 276 274 274 273 271 270 268 267 264 263 264 268 267 270 272 275 278
nan nan nan nan nan nan nan nan nan nan nan nan nan nan nan nan nan nan nan nan nan nan nan nan nan nan nan nan nan nan nan nan nan nan nan nan nan nan nan nan nan nan nan nan nan nan nan nan nan nan nan nan nan nan nan nan nan nan nan nan 256 260 268 275 278 280 281 281 281 280 277 275 272 269 268 266 264 263 263 267 269 270 272 274 276
nan nan nan nan nan nan nan nan nan nan nan nan nan nan nan nan nan nan nan nan nan nan nan nan nan nan nan nan nan nan nan nan nan nan nan nan nan nan nan nan nan nan nan nan nan nan nan nan nan nan nan nan nan nan nan nan nan nan nan 255 256 260 268 272 274 275 276 278 280 281 281 278 273 270 269 268 267 265 266 266 269 269 270 272 274
nan nan nan nan nan nan nan nan nan nan nan nan nan nan nan nan nan nan nan nan nan nan nan nan nan nan nan nan nan nan nan nan nan nan nan nan nan nan nan nan nan nan nan nan nan nan nan nan nan nan nan nan nan nan nan nan nan nan 258 257 255 256 264 269 271 271 272 272 273 275 277 277 275 271 269 267 266 265 266 268 269 269 270 271 271
nan nan nan nan nan nan nan nan nan nan nan nan nan nan nan nan nan nan nan nan nan nan nan nan nan nan nan nan nan nan nan nan nan nan nan nan nan nan nan nan nan nan nan nan nan nan nan nan nan nan nan nan nan nan nan nan nan nan nan nan 258 257 259 264 268 269 269 269 270 271 271 271 272 273 271 270 268 266 265 267 270 271 273 274 273
nan nan nan nan nan nan nan nan nan nan nan nan nan nan nan nan nan nan nan nan nan nan nan nan nan nan nan nan nan nan nan nan nan nan nan nan nan nan nan nan nan nan nan nan nan nan nan nan nan nan nan nan nan nan nan nan nan nan nan nan nan 257 258 261 266 270 270 268 268 268 269 271 272 274 274 272 271 271 271 272 275 278 279 278 276
nan nan nan nan nan nan nan nan nan nan nan nan nan nan nan nan nan nan nan nan nan nan nan nan nan nan nan nan nan nan nan nan nan nan nan nan nan nan nan nan nan nan nan nan nan nan nan nan nan nan nan nan nan nan nan nan nan nan nan nan nan 257 258 260 262 265 267 268 267 266 268 271 273 274 276 278 277 276 278 280 280 280 280 278 275
nan nan nan nan nan nan nan nan nan nan nan nan nan nan nan nan nan nan nan nan nan nan nan nan nan nan nan nan nan nan nan nan nan nan nan nan nan nan nan nan nan nan nan nan nan nan nan nan nan nan nan nan nan nan nan nan nan 255 257 258 258 257 258 260 260 261 262 264 265 267 271 273 274 273 271 273 277 279 276 272 271 274 277 279 275
nan nan nan nan nan nan nan nan nan nan nan nan nan nan nan nan nan nan nan nan nan nan nan nan nan nan nan nan nan nan nan nan nan nan nan nan nan nan nan nan nan nan nan nan nan nan nan nan nan nan nan nan nan nan nan nan nan nan 249 250 251 252 250 253 255 256 258 260 262 264 267 270 272 274 277 278 281 282 279 276 274 274 275 276 273
nan nan nan nan nan nan nan nan nan nan nan nan nan nan nan nan nan nan nan nan nan nan nan nan nan nan nan nan nan nan nan nan nan nan nan nan nan nan nan nan nan nan nan nan nan nan nan nan nan nan nan nan nan nan nan nan nan nan nan nan 248 248 nan 249 250 251 253 255 256 259 262 265 269 272 276 280 282 280 277 275 276 275 273 272 274
nan nan nan nan nan nan nan nan nan nan nan nan nan nan nan nan nan nan nan nan nan nan nan nan nan nan nan nan nan nan nan nan nan nan nan nan nan nan nan nan nan nan nan nan nan nan nan nan nan nan nan nan nan nan nan nan nan nan nan nan nan nan nan nan nan 251 252 nan 254 256 258 258 260 262 268 276 277 275 274 275 274 273 272 272 273
nan nan nan nan nan nan nan nan nan nan nan nan nan nan nan nan nan nan nan nan nan nan nan nan nan nan nan nan nan nan nan nan nan nan nan nan nan nan nan nan nan nan nan nan nan nan nan nan nan nan nan nan nan nan nan nan nan nan nan nan nan nan nan nan nan nan nan nan 253 254 254 255 256 259 264 269 272 270 269 272 273 274 273 272 273
nan nan nan nan nan nan nan nan nan nan nan nan nan nan nan nan nan nan nan nan nan nan nan nan nan nan nan nan nan nan nan nan nan nan nan nan nan nan nan nan nan nan nan nan nan nan nan nan nan nan nan nan nan nan nan nan nan nan nan nan nan nan nan nan nan nan nan nan nan nan nan nan 257 257 256 256 256 nan 259 264 269 270 273 275 273
nan nan nan nan nan nan nan nan nan nan nan nan nan nan nan nan nan nan nan nan nan nan nan nan nan nan nan nan nan nan nan nan nan nan nan nan nan nan nan nan nan nan nan nan nan nan nan nan nan nan nan nan nan nan nan nan nan nan nan nan nan nan nan nan nan nan nan nan nan nan nan nan nan nan nan nan nan nan nan nan 263 267 266 268 270
nan nan nan nan nan nan nan nan nan nan nan nan nan nan nan nan nan nan nan nan nan nan nan nan nan nan nan nan nan nan nan nan nan nan nan nan nan nan nan nan nan nan nan nan nan nan nan nan nan nan nan nan nan nan nan nan nan nan nan nan nan nan nan nan nan nan nan nan nan nan nan nan nan nan nan nan nan nan nan nan nan 264 266 266 267
nan nan nan nan nan nan nan nan nan nan nan nan nan nan nan nan nan nan nan nan nan nan nan nan nan nan nan nan nan nan nan nan nan nan nan nan nan nan nan nan nan nan nan nan nan nan nan nan nan nan nan nan nan nan nan nan nan nan nan nan nan nan nan nan nan nan nan nan nan nan nan nan nan nan nan nan nan nan nan nan nan nan nan nan 268
nan nan nan nan nan nan nan nan nan nan nan nan nan nan nan nan nan nan nan nan nan nan nan nan nan nan nan nan nan nan nan nan nan nan nan nan nan nan nan nan nan nan nan nan nan nan nan nan nan nan nan nan nan nan nan nan nan nan nan nan nan nan nan nan nan nan nan nan nan nan nan nan nan nan nan nan nan nan nan nan nan nan nan nan nan
nan nan nan nan nan nan nan nan nan nan nan nan nan nan nan nan nan nan nan nan nan nan nan nan nan nan nan nan nan nan nan nan nan nan nan nan nan nan nan nan nan nan nan nan nan nan nan nan nan nan nan nan nan nan nan nan nan nan nan nan nan nan nan nan nan nan nan nan nan nan nan nan nan nan nan nan nan nan nan nan nan nan nan nan nan
nan nan nan nan nan nan nan nan nan nan nan nan nan nan nan nan nan nan nan nan nan nan nan nan nan nan nan nan nan nan nan nan nan nan nan nan nan nan nan nan nan nan nan nan nan nan nan nan nan nan nan nan nan nan nan nan nan nan nan nan nan nan nan nan nan nan nan nan nan nan nan nan nan nan nan nan nan nan nan nan nan nan nan nan nan
nan nan nan nan nan nan nan nan nan nan nan nan nan nan nan nan nan nan nan nan nan nan nan nan nan nan nan nan nan nan nan nan nan nan nan nan nan nan nan nan nan nan nan nan nan nan nan nan nan nan nan nan nan nan nan nan nan nan nan nan nan nan nan nan nan nan nan nan nan nan nan nan nan nan nan nan nan nan nan nan nan nan nan nan nan
nan nan nan nan nan nan nan nan nan nan nan nan nan nan nan nan nan nan nan nan nan nan nan nan nan nan nan nan nan nan nan nan nan nan nan nan nan nan nan nan nan nan nan nan nan nan nan nan nan nan nan nan nan nan nan nan nan nan nan nan nan nan nan nan nan nan nan nan nan nan nan nan nan nan nan nan nan nan nan nan nan nan nan nan nan
nan nan nan nan nan nan nan nan nan nan nan nan nan nan nan nan nan nan nan nan nan nan nan nan nan nan nan nan nan nan nan nan nan nan nan nan nan nan nan nan nan nan nan nan nan nan nan nan nan nan nan nan nan nan nan nan nan nan nan nan nan nan nan nan nan nan nan nan nan nan nan nan nan nan nan nan nan nan nan nan nan nan nan nan nan